Location: Pandora
(40.9481°N, 83.9611°W)
Time: 13:52:36
(UTC-04:00)

Nauka - Pass Details

Date: 21 September 2021
Orbit: 417 x 423 km, 51.6° (Epoch: 26 October)

Event Time Altitude Azimuth Distance (km) Brightness Sun altitude
Rises 20:13:40 0° 258° (WSW) 2,354 ? -8.3°
Reaches altitude 10° 20:15:55 10° 270° (W) 1,494 ? -8.7°
Maximum altitude 20:18:56 31° 334° (NNW) 768 ? -9.3°
Drops below altitude 10° 20:21:59 10° 39° (NE) 1,502 ? -9.8°
Enters shadow 20:23:20 - 46° (NE) 2,011 ? -10.1°
